Simultaneous Nadir Overpasses (SNOs) Predictions

Prediction of SNOs between METOP-A and TERRA Satellite Orbit:

Table of predicted SNOs for the next 14.0 days since TLE Epoch: 11/2/2019
Index Date (METOP-A) Time (METOP-A) Lat,Lon (METOP-A) SZA (METOP-A ) Date (TERRA) Time (TERRA) Lat,Lon (TERRA) SZA (TERRA ) Distance(km) Time Diff (sec)
1 11/03/2019 12:13:24 81.45, 46.38 99.89 11/03/2019 12:14:06 81.44, 46.43 99.91 1.48 42
2 11/03/2019 13:04:04 -81.44,-146.08 80.09 11/03/2019 13:03:33 -81.43,-146.00 80.10 1.83 31
3 11/06/2019 07:47:46 81.44, 113.06 100.77 11/06/2019 07:48:19 81.45, 113.24 100.81 3.20 33
4 11/06/2019 08:38:26 -81.44, -79.38 79.20 11/06/2019 08:37:47 -81.43, -79.56 79.24 2.91 39
5 11/09/2019 03:22:10 81.44, 179.32 101.57 11/09/2019 03:22:35 81.43, 179.22 101.56 2.22 25
6 11/09/2019 04:12:50 -81.44, -13.10 78.40 11/09/2019 04:12:02 -81.43, -13.16 78.43 1.42 48
7 11/11/2019 22:56:33 81.44,-114.03 102.37 11/11/2019 22:56:49 81.44,-114.07 102.38 0.88 16
8 11/11/2019 23:47:13 -81.43, 53.57 77.59 11/11/2019 23:46:16 -81.44, 53.58 77.62 1.07 57
9 11/14/2019 18:30:56 81.44, -47.79 103.09 11/14/2019 18:31:03 81.44, -47.80 103.09 0.54 7




NCC Satellite Simultaneous Nadir Overpasses (SNOs) Prediction Service
